PST,Max TemperatureF,Mean TemperatureF,Min TemperatureF,Max Dew PointF,MeanDew PointF,Min DewpointF,Max Humidity, Mean Humidity, Min Humidity, Max Sea Level PressureIn, Mean Sea Level PressureIn, Min Sea Level PressureIn, Max VisibilityMiles, Mean VisibilityMiles, Min VisibilityMiles, Max Wind SpeedMPH, Mean Wind SpeedMPH, Max Gust SpeedMPH,PrecipitationIn, CloudCover, Events, WindDirDegrees
2011-11-1,89,74,58,36,29,7,39,26,13,30.06,29.86,29.78,10,10,10,9,4,14,0.00,0,,293
2011-11-2,78,70,62,10,2,-7,8,7,5,30.28,30.16,30.09,10,10,10,20,7,28,0.00,0,,295
2011-11-3,76,63,49,40,15,5,22,15,7,30.12,29.97,29.80,10,10,10,10,5,20,0.00,1,,324
2011-11-4,65,61,56,49,42,36,57,50,43,29.78,29.70,29.62,10,10,10,26,4,35,0.01,4,Rain,330
2011-11-5,68,56,44,40,35,31,76,51,26,29.97,29.91,29.77,10,10,10,9,3,15,0.00,0,,287
2011-11-6,65,55,44,47,40,31,71,51,31,30.00,29.96,29.93,10,10,10,16,2,20,0.02,3,Rain,280
2011-11-7,69,56,43,43,38,31,86,57,27,30.19,30.07,29.98,10,10,10,13,3,20,0.00,0,,310
2011-11-8,71,59,46,37,29,18,61,38,14,30.29,30.22,30.18,10,10,10,12,5,15,0.00,1,,306
2011-11-9,74,61,48,28,21,14,42,26,10,30.36,30.28,30.21,10,10,10,9,5,10,0.00,0,,271
2011-11-10,73,61,48,35,25,19,38,26,14,30.28,30.17,30.04,10,10,10,9,4,12,0.00,2,,319
2011-11-11,74,65,56,37,30,23,39,27,15,30.01,29.92,29.84,10,10,10,9,3,13,0.00,2,,350
2011-11-12,62,56,50,53,46,33,55,48,41,29.91,29.85,29.81,10,10,8,14,2,21,0.16,6,Rain,273
2011-11-13,71,61,51,53,50,47,96,69,41,29.96,29.89,29.85,10,10,10,9,3,12,0.00,1,,5
2011-11-14,74,63,51,50,48,46,89,64,38,29.95,29.90,29.84,10,10,10,12,4,23,0.00,0,,52
2011-11-15,76,63,49,50,47,43,93,62,31,30.03,29.98,29.93,10,10,7,10,1,14,0.00,0,,26
2011-11-16,76,64,52,50,46,43,83,60,36,30.14,30.09,30.03,10,9,7,12,5,15,0.00,0,,3
2011-11-17,79,66,53,45,41,35,66,44,21,30.12,30.00,29.89,10,10,10,12,4,24,0.00,1,,322
2011-11-18,74,63,52,45,43,41,66,50,33,29.89,29.81,29.75,10,10,10,18,3,26,0.00,1,,268
2011-11-19,71,59,47,44,40,36,80,55,29,29.86,29.81,29.76,10,10,10,18,3,25,0.00,0,,319
2011-11-20,67,56,45,50,41,35,76,54,32,29.97,29.91,29.86,10,10,10,10,4,15,0.00,4,Rain,147
2011-11-21,70,60,50,50,43,37,93,63,32,30.24,30.10,29.96,10,10,10,15,4,20,0.00,1,,313
2011-11-22,72,60,47,40,36,30,76,49,22,30.29,30.21,30.15,10,10,10,9,4,13,0.00,0,,323
2011-11-23,77,63,48,41,36,32,66,44,21,30.11,29.99,29.90,10,10,10,10,4,32,0.00,0,,328
2011-11-24,68,57,46,44,41,37,82,59,35,30.03,29.95,29.89,10,10,10,20,5,25,0.00,0,,304
2011-11-25,79,62,44,43,39,34,76,49,21,30.23,30.12,30.03,10,10,10,10,3,15,0.00,0,,295
2011-11-26,84,68,52,36,22,16,51,30,8,30.33,30.29,30.22,10,10,10,16,5,20,0.00,0,,306
2011-11-27,78,64,50,31,24,17,44,28,12,30.40,30.31,30.25,10,10,10,10,4,15,0.00,0,,335
2011-11-28,79,64,49,36,26,16,46,28,9,30.24,30.16,30.09,10,10,10,10,4,12,0.00,2,,330
2011-11-29,77,65,53,34,29,22,40,27,13,30.13,30.07,30.03,10,10,10,9,4,10,0.00,2,,328
2011-11-30,75,61,47,41,30,22,44,31,17,30.02,29.82,29.66,10,10,10,10,6,13,0.00,1,,350